FW4334 Weather Reports


Display with metric or nautical units.
time (UTC)temp
F
wind
direction
speed
MPH
gust
MPH
rain 1hr
in
rain 24hr
in
rain mn
in
humidity
%
barometer
mb
20260901170556 91 293 0.0 2.0 0.00 0.00 0.00 77 1017.7
20260901165555 90 280 1.0 5.0 0.00 0.00 0.00 81 1017.9
20260901165055 89 70 0.0 0.0 0.00 0.00 0.00 76 1018.0
20260901164621 89 67 0.0 2.0 0.00 0.00 0.00 74 1018.0
20260901164054 90 67 0.0 3.0 0.00 0.00 0.00 72 1017.9
20260901163555 90 26 0.0 3.0 0.00 0.00 0.00 72 1018.1
20260901163054 90 93 1.0 8.0 0.00 0.00 0.00 74 1018.1
20260901162555 90 102 1.0 8.0 0.00 0.00 0.00 75 1018.1
20260901162052 90 85 1.0 3.0 0.00 0.00 0.00 75 1018.1
20260901161552 90 71 0.0 4.0 0.00 0.00 0.00 75 1018.0
20260901161053 90 79 0.0 4.0 0.00 0.00 0.00 74 1018.2
20260901160551 90 101 1.0 4.0 0.00 0.00 0.00 75 1018.1
20260901160054 89 59 0.0 3.0 0.00 0.00 0.00 75 1018.1
20260901155549 89 36 0.0 2.0 0.00 0.00 0.00 76 1018.1
20260901155049 89 71 0.0 3.0 0.00 0.00 0.00 76 1018.2
20260901154548 89 71 0.0 3.0 0.00 0.00 0.00 75 1018.2
20260901154047 89 55 1.0 3.0 0.00 0.00 0.00 76 1018.3
20260901153545 89 47 0.0 3.0 0.00 0.00 0.00 77 1018.3
20260901153045 88 38 0.0 3.0 0.00 0.00 0.00 76 1018.2
20260901152543 88 59 0.0 0.0 0.00 0.00 0.00 78 1018.3
20260901152041 87 61 0.0 0.0 0.00 0.00 0.00 80 1018.3
20260901151540 86 61 0.0 0.0 0.00 0.00 0.00 81 1018.3
20260901151039 86 63 0.0 0.0 0.00 0.00 0.00 82 1018.3
20260901150537 86 63 0.0 0.0 0.00 0.00 0.00 84 1018.3
20260901150036 85 71 0.0 0.0 0.00 0.00 0.00 86 1018.3
20260901145534 84 71 0.0 0.0 0.00 0.00 0.00 87 1018.3
20260901145032 83 84 0.0 0.0 0.00 0.00 0.00 88 1018.3
20260901144537 83 84 0.0 2.0 0.00 0.00 0.00 87 1018.2
20260901144031 83 333 0.0 0.0 0.00 0.00 0.00 88 1018.1
20260901143529 82 333 0.0 0.0 0.00 0.00 0.00 89 1018.1
20260901143028 82 324 0.0 0.0 0.00 0.00 0.00 89 1018.0
20260901142527 82 292 0.0 0.0 0.00 0.00 0.00 90 1018.1
20260901142025 82 50 0.0 0.0 0.00 0.00 0.00 90 1018.1
20260901141525 81 67 0.0 0.0 0.00 0.00 0.00 90 1018.1
20260901141025 81 67 0.0 0.0 0.00 0.00 0.00 91 1018.1
20260901140522 81 60 0.0 0.0 0.00 0.00 0.00 92 1018.1
20260901140021 81 25 0.0 0.0 0.00 0.00 0.00 93 1018.1
20260901135519 80 25 0.0 0.0 0.00 0.00 0.00 94 1018.2
20260901135018 79 283 0.0 0.0 0.00 0.00 0.00 94 1018.2
20260901134516 79 283 0.0 0.0 0.00 0.00 0.00 94 1018.1
20260901134015 79 252 0.0 0.0 0.00 0.00 0.00 94 1018.2
20260901133515 78 257 0.0 0.0 0.00 0.00 0.00 94 1018.1
20260901133023 78 258 0.0 0.0 0.00 0.00 0.00 94 1018.1
20260901132514 78 257 0.0 0.0 0.00 0.00 0.00 95 1018.0
20260901132014 78 257 0.0 3.0 0.00 0.00 0.00 95 1018.2
20260901131513 78 259 0.0 3.0 0.00 0.00 0.00 95 1018.1
20260901131013 78 92 0.0 0.0 0.00 0.00 0.00 95 1018.2
20260901130513 78 90 0.0 0.0 0.00 0.00 0.00 95 1018.1
20260901130013 77 96 0.0 0.0 0.00 0.00 0.00 95 1018.1
20260901125511 77 96 0.0 0.0 0.00 0.00 0.00 95 1018.1
20260901125011 77 97 0.0 0.0 0.00 0.00 0.00 95 1018.1
20260901124511 77 97 0.0 0.0 0.00 0.00 0.00 95 1018.1
20260901124010 77 97 0.0 0.0 0.00 0.00 0.00 95 1018.1
20260901123510 77 90 0.0 0.0 0.00 0.00 0.00 95 1018.1
20260901123011 77 90 0.0 0.0 0.00 0.00 0.00 95 1017.8
20260901122510 76 93 0.0 0.0 0.00 0.00 0.00 95 1017.8
20260901122009 76 94 0.0 0.0 0.00 0.00 0.00 95 1017.9
20260901121509 76 95 0.0 0.0 0.00 0.00 0.00 95 1017.8
20260901121009 76 95 0.0 0.0 0.00 0.00 0.00 95 1017.7
20260901120511 76 95 0.0 0.0 0.00 0.00 0.00 95 1017.7
20260901120008 76 95 0.0 0.0 0.00 0.00 0.00 95 1017.8
20260901115508 76 95 0.0 0.0 0.00 0.00 0.00 95 1017.6
20260901115008 76 95 0.0 0.0 0.00 0.00 0.00 95 1017.6
20260901114506 76 95 0.0 0.0 0.00 0.00 0.00 94 1017.4
20260901114006 76 95 0.0 0.0 0.00 0.00 0.00 94 1017.3
20260901113507 76 96 0.0 0.0 0.00 0.00 0.00 94 1017.3
20260901113006 76 95 0.0 0.0 0.00 0.00 0.00 94 1017.3
20260901112507 76 95 0.0 0.0 0.00 0.00 0.00 94 1017.2
20260901112005 76 95 0.0 0.0 0.00 0.00 0.00 94 1017.2
20260901111506 76 95 0.0 0.0 0.00 0.00 0.00 94 1017.1
20260901111006 76 95 0.0 0.0 0.00 0.00 0.00 94 1017.0
20260901110504 76 95 0.0 0.0 0.00 0.00 0.00 94 1017.0
20260901110007 76 95 0.0 0.0 0.00 0.00 0.00 94 1016.9
20260901105504 76 95 0.0 0.0 0.00 0.00 0.00 94 1016.9
20260901105005 76 95 0.0 0.0 0.00 0.00 0.00 94 1016.9
20260901104503 76 95 0.0 0.0 0.00 0.00 0.00 94 1016.9
20260901104003 76 95 0.0 0.0 0.00 0.00 0.00 94 1016.8
20260901103502 76 95 0.0 0.0 0.00 0.00 0.00 94 1016.8
20260901103002 76 95 0.0 0.0 0.00 0.00 0.00 94 1016.7
20260901102503 76 95 0.0 0.0 0.00 0.00 0.00 94 1016.7
20260901102002 76 95 0.0 0.0 0.00 0.00 0.00 94 1016.6
20260901101502 76 95 0.0 0.0 0.00 0.00 0.00 94 1016.6
20260901101001 76 95 0.0 0.0 0.00 0.00 0.00 94 1016.6
20260901100601 76 95 0.0 0.0 0.00 0.00 0.00 94 1016.6
20260901100105 76 95 0.0 0.0 0.00 0.00 0.00 94 1016.5
20260901095559 76 95 0.0 0.0 0.00 0.00 0.00 94 1016.4
20260901095059 76 95 0.0 0.0 0.00 0.00 0.00 94 1016.4
20260901094558 76 95 0.0 0.0 0.00 0.00 0.00 94 1016.3
20260901094057 76 95 0.0 0.0 0.00 0.00 0.00 94 1016.3
20260901093601 76 95 0.0 0.0 0.00 0.00 0.00 94 1016.3
20260901093125 76 95 0.0 0.0 0.00 0.00 0.00 94 1016.4
20260901092557 76 94 0.0 0.0 0.00 0.00 0.00 94 1016.2
20260901092058 76 94 0.0 0.0 0.00 0.00 0.00 94 1016.2
20260901091605 76 95 0.0 0.0 0.00 0.00 0.00 94 1016.1
20260901091056 76 95 0.0 0.0 0.00 0.00 0.00 94 1016.1
20260901090559 76 94 0.0 0.0 0.00 0.00 0.00 94 1016.1
20260901090056 76 95 0.0 0.0 0.00 0.00 0.00 94 1016.1
20260901085556 76 95 0.0 0.0 0.00 0.00 0.00 94 1016.1
20260901085055 76 95 0.0 0.0 0.00 0.00 0.00 94 1016.1
20260901084554 76 95 0.0 0.0 0.00 0.00 0.00 94 1016.1
20260901084055 76 95 0.0 0.0 0.00 0.00 0.00 94 1016.1
20260901083555 76 95 0.0 0.0 0.00 0.00 0.00 94 1016.1
20260901083055 76 95 0.0 0.0 0.00 0.00 0.00 94 1016.3
20260901082558 76 95 0.0 0.0 0.00 0.00 0.00 94 1016.2
20260901082054 76 95 0.0 0.0 0.00 0.00 0.00 94 1016.2
20260901081600 76 96 0.0 0.0 0.00 0.00 0.00 94 1016.1
20260901081056 76 95 0.0 0.0 0.00 0.00 0.00 94 1016.0
20260901080554 76 95 0.0 0.0 0.00 0.00 0.00 93 1016.1
20260901080051 76 95 0.0 0.0 0.00 0.00 0.00 93 1016.2
20260901075554 76 96 0.0 0.0 0.00 0.00 0.00 93 1016.2
20260901075050 76 96 0.0 0.0 0.00 0.00 0.00 93 1016.3
20260901074549 76 96 0.0 0.0 0.00 0.00 0.00 93 1016.2
20260901074049 76 96 0.0 0.0 0.00 0.00 0.00 93 1016.3
20260901073548 76 96 0.0 0.0 0.00 0.00 0.00 93 1016.3
20260901073048 76 96 0.0 0.0 0.00 0.00 0.00 93 1016.5
20260901072547 77 96 0.0 0.0 0.00 0.00 0.00 93 1016.7
20260901072047 77 96 0.0 0.0 0.00 0.00 0.00 93 1016.8
20260901071548 77 96 0.0 0.0 0.00 0.00 0.00 93 1016.8
20260901071047 77 96 0.0 0.0 0.00 0.00 0.00 93 1016.7
20260901070545 77 96 0.0 0.0 0.00 0.00 0.00 93 1016.9
20260901070054 77 96 0.0 0.0 0.00 0.00 0.00 93 1017.0
20260901065543 77 96 0.0 0.0 0.00 0.00 0.00 93 1017.1
20260901065044 77 96 0.0 0.0 0.00 0.00 0.00 93 1017.0
20260901064543 77 96 0.0 0.0 0.00 0.00 0.00 93 1017.0
20260901064044 77 96 0.0 0.0 0.00 0.00 0.00 93 1017.0
20260901063542 77 96 0.0 0.0 0.00 0.00 0.00 93 1017.2
20260901063042 77 96 0.0 0.0 0.00 0.00 0.00 93 1017.1
20260901062541 77 96 0.0 0.0 0.00 0.00 0.00 93 1017.1
20260901062041 77 96 0.0 0.0 0.00 0.00 0.00 93 1017.2
20260901061540 77 96 0.0 0.0 0.00 0.00 0.00 93 1017.3
20260901061039 77 96 0.0 0.0 0.00 0.00 0.00 93 1017.5
20260901060539 77 96 0.0 0.0 0.00 0.00 0.00 93 1017.4
20260901060039 77 96 0.0 0.0 0.00 0.00 0.00 93 1017.5
20260901055538 77 96 0.0 0.0 0.00 0.00 0.00 93 1017.5
20260901055037 77 96 0.0 0.0 0.00 0.00 0.00 93 1017.5
20260901054537 77 96 0.0 0.0 0.00 0.00 0.00 93 1017.5
20260901054037 77 96 0.0 0.0 0.00 0.00 0.00 93 1017.6
20260901053536 77 96 0.0 0.0 0.00 0.00 0.00 93 1017.6
20260901053038 78 96 0.0 0.0 0.00 0.00 0.00 93 1017.5
20260901052535 78 96 0.0 0.0 0.00 0.00 0.00 93 1017.6
20260901052035 78 96 0.0 0.0 0.00 0.00 0.00 93 1017.7
20260901051537 78 96 0.0 0.0 0.00 0.00 0.00 93 1017.6
20260901051034 78 96 0.0 0.0 0.00 0.00 0.00 92 1017.5
20260901050535 78 96 0.0 0.0 0.00 0.00 0.00 92 1017.5
20260901050034 78 96 0.0 0.0 0.00 0.00 0.00 92 1017.6
20260901045533 78 96 0.0 0.0 0.00 0.00 0.00 92 1017.6
20260901045032 78 96 0.0 0.0 0.00 0.00 0.00 92 1017.7
20260901044531 78 96 0.0 0.0 0.00 0.00 0.00 92 1017.9
20260901044031 78 96 0.0 0.0 0.00 0.00 0.00 92 1018.0
20260901043531 78 96 0.0 0.0 0.00 0.00 0.00 92 1018.0
20260901043031 78 96 0.0 0.0 0.00 0.00 0.00 92 1017.9
20260901042530 78 96 0.0 0.0 0.00 0.00 0.00 92 1017.9
20260901042031 78 96 0.0 0.0 0.00 0.00 0.00 92 1018.0
20260901041530 78 96 0.0 0.0 0.00 0.00 0.00 92 1018.0
20260901041029 78 96 0.0 0.0 0.00 0.00 0.00 92 1018.0
20260901040528 78 96 0.0 0.0 0.00 0.00 0.00 92 1018.2
20260901040029 78 96 0.0 0.0 0.00 0.00 0.00 92 1018.1
20260901035528 78 96 0.0 0.0 0.00 0.00 0.00 92 1018.2
20260901035025 78 96 0.0 0.0 0.00 0.00 0.00 92 1018.0
20260901034527 78 96 0.0 0.0 0.00 0.00 0.00 92 1018.1
20260901034026 78 96 0.0 0.0 0.00 0.00 0.00 92 1018.1
20260901033526 79 96 0.0 0.0 0.00 0.00 0.00 92 1018.1
20260901033042 79 96 0.0 0.0 0.00 0.00 0.00 91 1018.2
20260901032526 79 96 0.0 0.0 0.00 0.00 0.00 91 1018.3
20260901032026 79 96 0.0 0.0 0.00 0.00 0.00 91 1018.2
20260901031527 79 96 0.0 0.0 0.00 0.00 0.00 91 1018.3
20260901031025 79 96 0.0 0.0 0.00 0.00 0.00 91 1018.2
20260901030527 79 96 0.0 0.0 0.00 0.00 0.00 91 1018.2
20260901030027 79 96 0.0 0.0 0.00 0.00 0.00 91 1018.3
20260901025525 79 95 0.0 0.0 0.00 0.00 0.00 91 1018.2
20260901025024 80 96 0.0 0.0 0.00 0.00 0.00 90 1018.3
20260901024528 80 96 0.0 0.0 0.00 0.00 0.00 90 1018.2
20260901024028 80 96 0.0 0.0 0.00 0.00 0.00 90 1018.2
20260901023523 80 96 0.0 0.0 0.00 0.00 0.00 90 1018.2
20260901023028 80 96 0.0 0.0 0.00 0.00 0.00 90 1018.3
20260901022524 80 96 0.0 0.0 0.00 0.00 0.00 90 1018.2
20260901022026 81 96 0.0 0.0 0.00 0.00 0.00 90 1018.3
20260901021526 81 96 0.0 0.0 0.00 0.00 0.00 89 1018.0
20260901021026 81 96 0.0 0.0 0.00 0.00 0.00 89 1018.1
20260901020523 81 96 0.0 1.0 0.00 0.00 0.00 89 1018.1
20260901020023 81 96 0.0 1.0 0.00 0.00 0.00 89 1018.2
20260901015523 81 120 0.0 0.0 0.00 0.00 0.00 89 1018.0
20260901015025 81 120 0.0 0.0 0.00 0.00 0.00 88 1018.0
20260901014522 81 121 0.0 0.0 0.00 0.00 0.00 88 1018.0
20260901014022 81 121 0.0 2.0 0.00 0.00 0.00 88 1018.0
20260901013521 81 121 0.0 2.0 0.00 0.00 0.00 88 1017.8
20260901013021 81 120 0.0 0.0 0.00 0.00 0.00 88 1017.8
20260901012521 81 121 0.0 0.0 0.00 0.00 0.00 87 1017.7
20260901012021 81 121 0.0 3.0 0.00 0.00 0.00 87 1017.6
20260901011519 82 121 0.0 3.0 0.00 0.00 0.00 86 1017.6
20260901011019 82 120 0.0 2.0 0.00 0.00 0.00 86 1017.5
20260901010519 82 122 0.0 0.0 0.00 0.00 0.00 85 1017.4
20260901010018 82 122 0.0 1.0 0.00 0.00 0.00 85 1017.4
20260901005518 82 122 0.0 1.0 0.00 0.00 0.00 85 1017.3
20260901005021 82 122 0.0 0.0 0.00 0.00 0.00 84 1017.3
20260901004518 82 122 0.0 0.0 0.00 0.00 0.00 84 1017.2
20260901004017 82 123 0.0 0.0 0.00 0.00 0.00 84 1017.2
20260901003521 82 123 0.0 0.0 0.00 0.00 0.00 83 1017.2
20260901003017 82 123 0.0 0.0 0.00 0.00 0.00 83 1017.2
20260901002520 82 123 0.0 1.0 0.00 0.00 0.00 83 1017.2
20260901002017 83 123 0.0 2.0 0.00 0.00 0.00 82 1017.0
20260901001523 83 123 0.0 2.0 0.00 0.00 0.00 82 1017.0
20260901001016 83 122 0.0 1.0 0.00 0.00 0.00 82 1017.1
20260901000517 83 9 0.0 2.0 0.00 0.00 0.00 82 1017.1
20260901000020 83 120 0.0 2.0 0.00 0.00 0.00 82 1017.0
20260831235515 83 121 0.0 0.0 0.00 0.00 0.00 81 1017.0
20260831235015 83 121 0.0 1.0 0.00 0.00 0.00 81 1016.9
20260831234531 83 121 0.0 1.0 0.00 0.00 0.00 81 1016.9
20260831234015 83 121 0.0 3.0 0.00 0.00 0.00 81 1017.0
20260831233519 84 121 1.0 4.0 0.00 0.00 0.00 81 1016.9
20260831233016 84 126 0.0 2.0 0.00 0.00 0.00 81 1017.0
20260831232514 84 123 0.0 2.0 0.00 0.00 0.00 81 1017.0
20260831232014 84 123 1.0 2.0 0.00 0.00 0.00 81 1017.0
20260831231514 84 122 0.0 3.0 0.00 0.00 0.00 81 1017.0
20260831231016 84 132 1.0 3.0 0.00 0.00 0.00 80 1017.0
20260831230516 85 124 1.0 3.0 0.00 0.00 0.00 80 1016.9
20260831230016 85 123 0.0 4.0 0.00 0.00 0.00 79 1016.9
20260831225514 85 124 0.0 2.0 0.00 0.00 0.00 78 1016.9
20260831225013 85 124 0.0 3.0 0.00 0.00 0.00 78 1016.9
20260831224512 85 124 0.0 4.0 0.00 0.00 0.00 77 1017.0
20260831224013 85 128 0.0 2.0 0.00 0.00 0.00 77 1016.9
20260831223513 86 128 0.0 3.0 0.00 0.00 0.00 77 1016.8
20260831223013 86 126 0.0 4.0 0.00 0.00 0.00 76 1016.8
20260831222512 86 122 0.0 8.0 0.00 0.00 0.00 75 1016.8
20260831222015 86 137 2.0 8.0 0.00 0.00 0.00 75 1016.7
20260831221522 87 105 0.0 6.0 0.00 0.00 0.00 75 1016.6
20260831221011 87 65 0.0 6.0 0.00 0.00 0.00 75 1016.5
20260831220512 87 46 0.0 0.0 0.00 0.00 0.00 75 1016.5
20260831220020 87 55 0.0 2.0 0.00 0.00 0.00 75 1016.4
20260831215511 87 46 0.0 5.0 0.00 0.00 0.00 74 1016.5
20260831215016 87 112 0.0 5.0 0.00 0.00 0.00 75 1016.5
20260831214511 87 59 0.0 3.0 0.00 0.00 0.00 74 1016.6
20260831214010 87 109 0.0 4.0 0.00 0.00 0.00 75 1016.6
20260831213511 87 121 2.0 6.0 0.00 0.00 0.00 74 1016.8
20260831213026 88 109 2.0 6.0 0.00 0.00 0.00 73 1016.8
20260831212510 88 94 1.0 3.0 0.00 0.00 0.00 72 1016.7
20260831212010 88 65 0.0 3.0 0.00 0.00 0.00 73 1016.7
20260831211512 88 118 1.0 3.0 0.00 0.00 0.00 74 1016.7
20260831211009 88 92 0.0 7.0 0.00 0.00 0.00 75 1016.7
20260831210509 88 130 2.0 7.0 0.00 0.00 0.00 75 1016.6
20260831210009 88 116 1.0 8.0 0.00 0.00 0.00 74 1016.6
20260831205509 88 125 2.0 8.0 0.00 0.00 0.00 73 1016.6
20260831205012 89 110 2.0 7.0 0.00 0.00 0.00 73 1016.6
20260831204509 89 119 0.0 3.0 0.00 0.00 0.00 72 1016.7
20260831204013 89 121 0.0 3.0 0.00 0.00 0.00 72 1016.6
20260831203509 89 38 1.0 4.0 0.00 0.00 0.00 72 1016.6
20260831203008 89 85 1.0 6.0 0.00 0.00 0.00 72 1016.7
20260831202507 89 63 0.0 6.0 0.00 0.00 0.00 73 1016.6
20260831202008 90 105 2.0 6.0 0.00 0.00 0.00 72 1016.6
20260831201509 90 87 1.0 4.0 0.00 0.00 0.00 72 1016.6
20260831201007 90 76 1.0 4.0 0.00 0.00 0.00 72 1016.6
20260831200506 90 69 0.0 6.0 0.00 0.00 0.00 72 1016.6
20260831200006 90 45 1.0 6.0 0.00 0.00 0.00 72 1016.6
20260831195505 90 80 1.0 3.0 0.00 0.00 0.00 72 1016.5
20260831195007 91 81 1.0 4.0 0.00 0.00 0.00 71 1016.7
20260831194505 91 44 0.0 3.0 0.00 0.00 0.00 72 1016.6
20260831194006 91 61 0.0 3.0 0.00 0.00 0.00 72 1016.8
20260831193505 91 74 1.0 5.0 0.00 0.00 0.00 72 1016.8
20260831193005 91 83 0.0 5.0 0.00 0.00 0.00 73 1016.8
20260831192505 91 42 0.0 4.0 0.00 0.00 0.00 72 1016.8
20260831192004 91 86 0.0 4.0 0.00 0.00 0.00 73 1016.8
20260831191505 91 40 1.0 4.0 0.00 0.00 0.00 72 1016.8
20260831191003 91 69 0.0 4.0 0.00 0.00 0.00 73 1016.9
20260831190505 91 20 0.0 4.0 0.00 0.00 0.00 73 1016.9
20260831190003 91 55 1.0 4.0 0.00 0.00 0.00 74 1017.1
20260831185503 91 68 1.0 6.0 0.00 0.00 0.00 73 1017.3
20260831185003 91 46 1.0 6.0 0.00 0.00 0.00 73 1017.2
20260831184503 91 76 1.0 3.0 0.00 0.00 0.00 71 1017.2
20260831184002 91 77 0.0 3.0 0.00 0.00 0.00 72 1017.4
20260831183503 91 54 0.0 4.0 0.00 0.00 0.00 74 1017.5
20260831183002 91 79 1.0 4.0 0.00 0.00 0.00 73 1017.6
20260831182503 91 32 2.0 5.0 0.00 0.00 0.00 73 1017.5
20260831182003 91 30 1.0 5.0 0.00 0.00 0.00 74 1017.6
20260831181503 91 32 1.0 6.0 0.00 0.00 0.00 73 1017.7
20260831181002 91 59 2.0 6.0 0.00 0.00 0.00 72 1017.7
20260831180600 92 65 1.0 4.0 0.00 0.00 0.00 71 1017.6
20260831180058 92 80 0.0 3.0 0.00 0.00 0.00 72 1017.7
20260831175559 91 89 0.0 4.0 0.00 0.00 0.00 74 1017.7
20260831175056 91 105 0.0 3.0 0.00 0.00 0.00 74 1017.8
20260831174559 91 75 0.0 2.0 0.00 0.00 0.00 69 1017.8
20260831174056 91 78 0.0 3.0 0.00 0.00 0.00 71 1018.0
20260831173559 91 74 0.0 3.0 0.00 0.00 0.00 71 1018.2
20260831173056 91 36 1.0 3.0 0.00 0.00 0.00 71 1018.2
20260831172558 91 92 1.0 3.0 0.00 0.00 0.00 73 1018.3
20260831172054 91 37 0.0 4.0 0.00 0.00 0.00 73 1018.5
20260831171556 91 89 1.0 3.0 0.00 0.00 0.00 72 1018.3
20260831171054 91 74 1.0 3.0 0.00 0.00 0.00 72 1018.4